DW6358 Weather Reports


time (UTC)temp
C
wind
direction
speed
KPH
gust
KPH
rain 1hr
cm
rain 24hr
cm
rain mn
cm
humidity
%
barometer
mb
20260508084821 17 217 4.8 19.3 0.00 0.00 0.00 68 1016.1
20260508084318 16 269 8.0 19.3 0.00 0.00 0.00 68 1016.1
20260508083816 16 158 6.4 12.9 0.00 0.00 0.00 69 1016.1
20260508083315 16 81 4.8 11.3 0.00 0.00 0.00 70 1016.2
20260508082831 16 226 6.4 11.3 0.00 0.00 0.00 70 1016.1
20260508082327 16 132 6.4 8.0 0.00 0.00 0.00 71 1016.1
20260508081825 15 285 1.6 8.0 0.00 0.00 0.00 72 1016.1
20260508081321 15 278 1.6 11.3 0.00 0.00 0.00 72 1016.2
20260508080818 15 295 4.8 11.3 0.00 0.00 0.00 72 1016.1
20260508080335 15 133 4.8 9.7 0.00 0.00 0.00 74 1016.2
20260508075827 15 136 4.8 9.7 0.00 0.00 0.00 75 1016.1
20260508075343 14 164 1.6 8.0 0.00 0.00 0.00 75 1016.2
20260508074821 14 130 3.2 11.3 0.00 0.00 0.00 76 1016.2
20260508074319 14 250 6.4 11.3 0.00 0.00 0.00 77 1016.2
20260508073816 14 271 1.6 8.0 0.00 0.00 0.00 78 1016.1
20260508073314 14 140 3.2 8.0 0.00 0.00 0.00 80 1016.2
20260508072851 13 236 1.6 6.4 0.00 0.00 0.00 82 1016.3
20260508072326 13 141 3.2 8.0 0.00 0.00 0.00 82 1016.2
20260508071824 13 213 3.2 8.0 0.00 0.00 0.00 82 1016.2
20260508071320 13 193 3.2 9.7 0.00 0.00 0.00 83 1016.1
20260508070818 13 342 1.6 8.0 0.00 0.00 0.00 83 1016.1
20260508070316 13 280 1.6 6.4 0.00 0.00 0.00 83 1016.1
20260508065813 13 251 3.2 6.4 0.00 0.00 0.00 83 1016.0
20260508065331 13 333 0.0 6.4 0.00 0.00 0.00 83 1015.9
20260508064827 13 328 1.6 8.0 0.00 0.00 0.00 83 1015.9
20260508064326 12 333 3.2 8.0 0.00 0.00 0.00 83 1015.9
20260508063824 12 332 1.6 8.0 0.00 0.00 0.00 83 1016.0
20260508063323 12 330 1.6 6.4 0.00 0.00 0.00 83 1015.9
20260508062840 12 164 1.6 6.4 0.00 0.00 0.00 83 1015.9
20260508062319 12 116 1.6 4.8 0.00 0.00 0.00 83 1015.9
20260508061830 12 310 1.6 4.8 0.00 0.00 0.00 83 1015.8
20260508061329 12 322 1.6 4.8 0.00 0.00 0.00 83 1015.8
20260508060827 12 311 1.6 4.8 0.00 0.00 0.00 83 1015.8
20260508060327 12 38 1.6 4.8 0.00 0.00 0.00 83 1015.8
20260508055824 12 333 1.6 4.8 0.00 0.00 0.00 83 1015.7
20260508055341 12 122 1.6 4.8 0.00 0.00 0.00 83 1015.6
20260508054817 12 297 0.0 4.8 0.00 0.00 0.00 83 1015.5
20260508054316 12 323 0.0 4.8 0.00 0.00 0.00 83 1015.5
20260508053814 12 283 1.6 4.8 0.00 0.00 0.00 83 1015.5
20260508053333 12 333 0.0 4.8 0.00 0.00 0.00 83 1015.5
20260508052829 12 129 1.6 4.8 0.00 0.00 0.00 83 1015.4
20260508052349 12 295 0.0 4.8 0.00 0.00 0.00 84 1015.4
20260508051825 12 303 1.6 9.7 0.00 0.00 0.00 84 1015.4
20260508051324 12 354 1.6 9.7 0.00 0.00 0.00 84 1015.3
20260508050822 12 323 1.6 4.8 0.00 0.00 0.00 84 1015.3
20260508050357 12 338 0.0 4.8 0.00 0.00 0.00 83 1015.2
20260508045814 12 346 1.6 4.8 0.00 0.00 0.00 83 1015.1
20260508045330 12 340 0.0 4.8 0.00 0.00 0.00 82 1015.0
20260508044828 12 40 1.6 3.2 0.00 0.00 0.00 82 1015.1
20260508044325 12 330 0.0 4.8 0.00 0.00 0.00 82 1015.1
20260508043823 13 307 1.6 6.4 0.00 0.00 0.00 82 1015.2
20260508043341 12 160 3.2 8.0 0.00 0.00 0.00 82 1015.3
20260508042816 12 2 3.2 8.0 0.00 0.00 0.00 81 1015.3
20260508042312 12 105 4.8 11.3 0.00 0.00 0.00 80 1015.4
20260508041851 12 53 4.8 14.5 0.00 0.00 0.00 80 1015.4
20260508041329 12 159 6.4 14.5 0.00 0.00 0.00 80 1015.3
20260508040824 12 168 3.2 8.0 0.00 0.00 0.00 81 1015.4
20260508040324 12 298 1.6 6.4 0.00 0.00 0.00 81 1015.3
20260508035820 12 131 1.6 6.4 0.00 0.00 0.00 80 1015.2
20260508035318 12 355 1.6 6.4 0.00 0.00 0.00 80 1015.3
20260508034816 12 338 1.6 6.4 0.00 0.00 0.00 80 1015.4
20260508034314 12 354 0.0 6.4 0.00 0.00 0.00 80 1015.4
20260508033831 12 165 1.6 6.4 0.00 0.00 0.00 79 1015.4
20260508033331 12 317 1.6 4.8 0.00 0.00 0.00 79 1015.4
20260508032827 12 347 1.6 6.4 0.00 0.00 0.00 79 1015.3
20260508032348 12 1 1.6 6.4 0.00 0.00 0.00 79 1015.2
20260508031824 12 332 1.6 6.4 0.00 0.00 0.00 79 1015.2
20260508031324 12 263 3.2 8.0 0.00 0.00 0.00 79 1015.2
20260508030822 12 13 3.2 8.0 0.00 0.00 0.00 79 1015.2
20260508030321 12 299 1.6 6.4 0.00 0.00 0.00 79 1015.3
20260508025818 12 323 1.6 6.4 0.00 0.00 0.00 79 1015.4
20260508025316 12 276 1.6 6.4 0.00 0.00 0.00 79 1015.5
20260508024813 12 321 3.2 6.4 0.00 0.00 0.00 79 1015.5
20260508024332 12 278 3.2 6.4 0.00 0.00 0.00 79 1015.5
20260508023328 12 16 3.2 8.0 0.00 0.00 0.00 79 1015.5
20260508022840 12 324 1.6 6.4 0.00 0.00 0.00 79 1015.6
20260508022317 12 83 1.6 4.8 0.00 0.00 0.00 79 1015.7
20260508021814 12 339 1.6 6.4 0.00 0.00 0.00 79 1015.8
20260508021351 13 347 1.6 6.4 0.00 0.00 0.00 78 1015.7
20260508020828 13 17 1.6 6.4 0.00 0.00 0.00 78 1015.8
20260508020339 13 352 1.6 6.4 0.00 0.00 0.00 78 1015.8
20260508015822 13 314 1.6 6.4 0.00 0.00 0.00 78 1015.9
20260508015321 13 27 1.6 6.4 0.00 0.00 0.00 78 1015.9
20260508014819 13 343 1.6 6.4 0.00 0.00 0.00 78 1016.0
20260508014313 13 74 1.6 6.4 0.00 0.00 0.00 78 1016.1
20260508013812 13 3 1.6 6.4 0.00 0.00 0.00 78 1016.0
20260508013331 13 297 1.6 6.4 0.00 0.00 0.00 78 1016.1
20260508012826 13 15 1.6 6.4 0.00 0.00 0.00 78 1016.1
20260508012324 13 302 1.6 4.8 0.00 0.00 0.00 78 1016.2
20260508011820 13 292 1.6 4.8 0.00 0.00 0.00 77 1016.3
20260508011339 13 131 1.6 8.0 0.00 0.00 0.00 77 1016.4
20260508010814 13 11 1.6 6.4 0.00 0.00 0.00 76 1016.4
20260508010332 13 285 1.6 3.2 0.00 0.00 0.00 76 1016.5
20260508005827 13 344 0.0 3.2 0.00 0.00 0.00 75 1016.6
20260508005324 13 127 1.6 3.2 0.00 0.00 0.00 75 1016.6
20260508004819 13 332 0.0 1.6 0.00 0.00 0.00 75 1016.6
20260508004317 14 335 0.0 1.6 0.00 0.00 0.00 74 1016.6
20260508003816 14 335 0.0 1.6 0.00 0.00 0.00 74 1016.6
20260508003314 14 284 0.0 3.2 0.00 0.00 0.00 73 1016.6
20260508002829 14 271 1.6 3.2 0.00 0.00 0.00 72 1016.7
20260508002327 14 303 0.0 3.2 0.00 0.00 0.00 72 1016.8
20260508001842 14 313 0.0 3.2 0.00 0.00 0.00 72 1016.6
20260508001319 14 328 0.0 4.8 0.00 0.00 0.00 72 1016.5
20260508000837 14 323 0.0 6.4 0.00 0.00 0.00 73 1016.5
20260508000315 14 314 1.6 6.4 0.00 0.00 0.00 72 1016.5
20260507235839 14 335 1.6 4.8 0.00 0.00 0.00 72 1016.6
20260507235316 14 316 1.6 4.8 0.00 0.00 0.00 72 1016.6
20260507234834 14 336 1.6 4.8 0.00 0.00 0.00 71 1016.6
20260507234329 14 329 0.0 3.2 0.00 0.00 0.00 71 1016.6
20260507233846 14 327 0.0 3.2 0.00 0.00 0.00 71 1016.8
20260507233324 14 302 0.0 3.2 0.00 0.00 0.00 72 1016.8
20260507232821 14 324 0.0 6.4 0.00 0.00 0.00 72 1016.8
20260507232318 14 303 0.0 3.2 0.00 0.00 0.00 73 1016.9
20260507231816 14 303 1.6 3.2 0.00 0.00 0.00 72 1016.9
20260507231313 14 322 0.0 3.2 0.00 0.00 0.00 72 1017.0
20260507230830 15 332 0.0 6.4 0.00 0.00 0.00 73 1017.0
20260507230328 14 326 4.8 6.4 0.00 0.00 0.00 72 1016.8
20260507225838 15 327 0.0 1.6 0.00 0.00 0.00 71 1016.9
20260507225315 15 327 0.0 4.8 0.00 0.00 0.00 71 1017.1
20260507224814 15 327 3.2 4.8 0.00 0.00 0.00 71 1016.9
20260507224313 15 330 1.6 6.4 0.00 0.00 0.00 72 1016.9
20260507223813 15 317 3.2 9.7 0.00 0.00 0.00 72 1016.9
20260507222829 15 324 6.4 9.7 0.00 0.00 0.00 73 1016.9
20260507222326 15 325 6.4 9.7 0.00 0.00 0.00 72 1017.1
20260507221823 15 340 4.8 9.7 0.00 0.00 0.00 72 1017.2
20260507221338 15 330 4.8 9.7 0.00 0.00 0.00 72 1017.3
20260507220814 15 327 8.0 9.7 0.00 0.00 0.00 71 1017.4
20260507220314 15 354 6.4 8.0 0.00 0.00 0.00 72 1017.4
20260507215818 15 322 6.4 9.7 0.00 0.00 0.00 71 1017.4
20260507215315 15 326 8.0 11.3 0.00 0.00 0.00 69 1017.4
20260507214852 15 326 8.0 9.7 0.00 0.00 0.00 70 1017.5
20260507214329 15 341 4.8 9.7 0.00 0.00 0.00 70 1017.5
20260507213826 15 316 8.0 9.7 0.00 0.00 0.00 71 1017.4
20260507213325 15 340 4.8 8.0 0.00 0.00 0.00 72 1017.6
20260507212842 15 334 3.2 6.4 0.00 0.00 0.00 71 1017.9
20260507212319 15 324 1.6 4.8 0.00 0.00 0.00 72 1017.9
20260507211818 15 326 0.0 4.8 0.00 0.00 0.00 71 1018.0
20260507211316 15 345 3.2 9.7 0.00 0.00 0.00 72 1017.8
20260507210813 15 351 3.2 9.7 0.00 0.00 0.00 70 1017.8
20260507210333 15 334 3.2 8.0 0.00 0.00 0.00 72 1017.8
20260507205830 15 350 3.2 9.7 0.00 0.00 0.00 72 1017.7
20260507205328 15 309 1.6 9.7 0.00 0.00 0.00 71 1017.7
20260507204826 15 360 3.2 9.7 0.00 0.00 0.00 71 1017.8
20260507204324 15 342 4.8 9.7 0.00 0.00 0.00 71 1017.7
20260507203823 15 10 3.2 9.7 0.00 0.00 0.00 71 1017.7
20260507203322 15 342 6.4 9.7 0.00 0.00 0.00 71 1017.7
20260507202819 15 342 3.2 9.7 0.00 0.00 0.00 73 1017.6
20260507202316 15 312 6.4 9.7 0.00 0.00 0.00 73 1017.6
20260507201814 15 343 6.4 14.5 0.00 0.00 0.00 73 1017.4
20260507201332 15 11 6.4 14.5 0.00 0.00 0.00 73 1017.4
20260507200831 15 333 4.8 8.0 0.00 0.00 0.00 72 1017.4
20260507200329 15 316 3.2 8.0 0.00 0.00 0.00 72 1017.5
20260507195827 15 321 3.2 8.0 0.00 0.00 0.00 72 1017.5
20260507195407 15 343 1.6 11.3 0.00 0.00 0.00 71 1017.4
20260507194819 15 6 6.4 12.9 0.00 0.00 0.00 73 1017.4
20260507194336 15 13 6.4 12.9 0.00 0.00 0.00 73 1017.3
20260507193830 15 352 6.4 9.7 0.00 0.00 0.00 72 1017.3
20260507193330 15 314 4.8 11.3 0.00 0.00 0.00 72 1017.2
20260507192825 15 354 6.4 11.3 0.00 0.00 0.00 71 1017.2
20260507192322 15 325 3.2 9.7 0.00 0.00 0.00 72 1017.2
20260507191841 15 345 3.2 9.7 0.00 0.00 0.00 72 1017.2
20260507191318 15 349 3.2 6.4 0.00 0.00 0.00 72 1017.2
20260507190816 15 336 3.2 9.7 0.00 0.00 0.00 71 1017.1
20260507190356 15 359 3.2 9.7 0.00 0.00 0.00 70 1017.1
20260507185813 15 26 4.8 9.7 0.00 0.00 0.00 70 1017.1
20260507185330 15 338 4.8 9.7 0.00 0.00 0.00 71 1017.1
20260507184828 15 321 3.2 11.3 0.00 0.00 0.00 70 1017.1
20260507184347 15 333 3.2 11.3 0.00 0.00 0.00 70 1017.1
20260507183843 15 356 6.4 11.3 0.00 0.00 0.00 69 1017.0
20260507183320 16 322 6.4 11.3 0.00 0.00 0.00 69 1017.1
20260507182835 16 6 3.2 9.7 0.00 0.00 0.00 68 1017.0
20260507182314 16 326 1.6 11.3 0.00 0.00 0.00 68 1017.0
20260507181831 16 323 4.8 11.3 0.00 0.00 0.00 68 1017.1
20260507181348 16 32 3.2 9.7 0.00 0.00 0.00 67 1017.1
20260507180842 16 302 4.8 11.3 0.00 0.00 0.00 69 1017.0
20260507180320 16 314 6.4 11.3 0.00 0.00 0.00 68 1017.0
20260507175823 16 333 4.8 9.7 0.00 0.00 0.00 68 1017.0
20260507175323 16 328 4.8 9.7 0.00 0.00 0.00 67 1016.9
20260507174821 16 350 8.0 11.3 0.00 0.00 0.00 69 1016.9
20260507174318 16 346 4.8 11.3 0.00 0.00 0.00 69 1016.9
20260507173837 16 342 4.8 11.3 0.00 0.00 0.00 71 1016.9
20260507173331 16 323 8.0 11.3 0.00 0.00 0.00 72 1016.9
20260507172828 16 342 6.4 11.3 0.00 0.00 0.00 71 1017.0
20260507172328 16 339 8.0 11.3 0.00 0.00 0.00 72 1017.0
20260507171826 16 333 8.0 12.9 0.00 0.00 0.00 70 1017.0
20260507171324 16 335 6.4 12.9 0.00 0.00 0.00 72 1016.9
20260507170821 16 316 8.0 12.9 0.00 0.00 0.00 72 1016.9
20260507170340 16 351 8.0 12.9 0.00 0.00 0.00 71 1016.9
20260507165818 16 348 8.0 14.5 0.00 0.00 0.00 72 1016.9
20260507165313 16 314 9.7 11.3 0.00 0.00 0.00 72 1016.9
20260507164831 16 316 9.7 12.9 0.00 0.00 0.00 72 1017.0
20260507164329 16 326 9.7 12.9 0.00 0.00 0.00 70 1017.0
20260507163844 16 3 8.0 14.5 0.00 0.00 0.00 72 1016.9
20260507163322 16 321 11.3 14.5 0.00 0.00 0.00 72 1016.9
20260507162840 16 320 11.3 14.5 0.00 0.00 0.00 69 1016.8
20260507162315 16 305 8.0 14.5 0.00 0.00 0.00 70 1016.9
20260507161813 16 321 8.0 14.5 0.00 0.00 0.00 71 1016.9
20260507160826 16 345 8.0 16.1 0.00 0.00 0.00 71 1017.0
20260507160326 16 336 11.3 16.1 0.00 0.00 0.00 72 1017.0
20260507155822 16 354 9.7 16.1 0.00 0.00 0.00 71 1017.0
20260507155318 16 335 11.3 16.1 0.00 0.00 0.00 70 1017.0
20260507154815 16 349 9.7 16.1 0.00 0.00 0.00 71 1016.9
20260507154353 16 339 9.7 16.1 0.00 0.00 0.00 70 1016.9
20260507153850 17 348 9.7 12.9 0.00 0.00 0.00 70 1017.0
20260507153328 16 295 8.0 14.5 0.00 0.00 0.00 70 1017.0
20260507152826 16 347 9.7 14.5 0.00 0.00 0.00 70 1017.0
20260507152324 17 335 8.0 14.5 0.00 0.00 0.00 69 1017.0
20260507151822 17 347 11.3 14.5 0.00 0.00 0.00 69 1017.1
20260507151319 17 352 8.0 14.5 0.00 0.00 0.00 71 1017.1
20260507150819 17 335 8.0 16.1 0.00 0.00 0.00 70 1017.1
20260507150338 17 332 9.7 16.1 0.00 0.00 0.00 69 1017.3
20260507145831 17 314 8.0 14.5 0.00 0.00 0.00 70 1017.3
20260507145329 17 6 6.4 14.5 0.00 0.00 0.00 70 1017.3
20260507144827 16 345 9.7 14.5 0.00 0.00 0.00 70 1017.2
20260507144324 16 324 9.7 12.9 0.00 0.00 0.00 70 1017.3
20260507143822 17 340 8.0 16.1 0.00 0.00 0.00 70 1017.3
20260507143321 17 8 8.0 16.1 0.00 0.00 0.00 71 1017.4
20260507142818 16 345 9.7 12.9 0.00 0.00 0.00 71 1017.5
20260507142316 17 332 8.0 12.9 0.00 0.00 0.00 70 1017.5
20260507141814 16 338 8.0 12.9 0.00 0.00 0.00 71 1017.5
20260507141331 16 19 6.4 14.5 0.00 0.00 0.00 71 1017.5
20260507140830 16 320 9.7 14.5 0.00 0.00 0.00 71 1017.5
20260507140322 16 331 11.3 14.5 0.00 0.00 0.00 71 1017.6
20260507135848 16 358 8.0 17.7 0.00 0.00 0.00 72 1017.6
20260507135324 16 356 12.9 17.7 0.00 0.00 0.00 72 1017.6
20260507134823 16 324 8.0 14.5 0.00 0.00 0.00 73 1017.6
20260507134320 16 334 11.3 16.1 0.00 0.00 0.00 73 1017.6
20260507133818 16 333 11.3 16.1 0.00 0.00 0.00 72 1017.7
20260507133337 16 326 8.0 14.5 0.00 0.00 0.00 73 1017.7
20260507132813 16 340 9.7 14.5 0.00 0.00 0.00 72 1017.8
20260507132331 16 338 9.7 14.5 0.00 0.00 0.00 73 1017.8
20260507131829 16 330 9.7 16.1 0.00 0.00 0.00 74 1017.7
20260507131325 16 329 12.9 16.1 0.00 0.00 0.00 74 1017.7
20260507130844 16 326 12.9 16.1 0.00 0.00 0.00 72 1017.7
20260507130323 16 315 9.7 14.5 0.00 0.00 0.00 73 1017.7
20260507125905 16 338 9.7 16.1 0.00 0.00 0.00 73 1017.8
20260507125321 16 318 8.0 16.1 0.00 0.00 0.00 73 1017.8
20260507124836 16 345 9.7 14.5 0.00 0.00 0.00 74 1017.9
20260507124313 16 350 9.7 14.5 0.00 0.00 0.00 73 1017.9
20260507123831 16 330 9.7 14.5 0.00 0.00 0.00 73 1017.9
20260507123331 16 11 9.7 14.5 0.00 0.00 0.00 75 1017.9
20260507122849 16 359 8.0 16.1 0.00 0.00 0.00 75 1017.9
20260507122325 16 339 11.3 16.1 0.00 0.00 0.00 74 1018.0
20260507121844 16 350 9.7 16.1 0.00 0.00 0.00 75 1018.1
20260507121321 16 317 11.3 14.5 0.00 0.00 0.00 71 1018.1
20260507120820 16 307 9.7 12.9 0.00 0.00 0.00 71 1018.2
20260507120321 16 321 8.0 12.9 0.00 0.00 0.00 72 1018.1
20260507115825 16 335 8.0 12.9 0.00 0.00 0.00 72 1018.1
20260507115325 16 348 8.0 12.9 0.00 0.00 0.00 71 1018.1
20260507114823 16 283 8.0 14.5 0.00 0.00 0.00 71 1018.2
20260507114320 16 319 9.7 14.5 0.00 0.00 0.00 71 1018.2
20260507113819 16 353 8.0 12.9 0.00 0.00 0.00 71 1018.2
20260507113339 16 352 6.4 11.3 0.00 0.00 0.00 72 1018.2
20260507112814 16 360 6.4 14.5 0.00 0.00 0.00 72 1018.2
20260507111830 16 329 8.0 14.5 0.00 0.00 0.00 73 1018.3
20260507111327 16 317 9.7 12.9 0.00 0.00 0.00 72 1018.2
20260507110825 16 329 9.7 14.5 0.00 0.00 0.00 74 1018.3
20260507110324 16 317 9.7 14.5 0.00 0.00 0.00 73 1018.2
20260507105822 16 329 11.3 14.5 0.00 0.00 0.00 72 1018.2
20260507105322 16 321 9.7 12.9 0.00 0.00 0.00 73 1018.2
20260507104819 16 329 9.7 14.5 0.00 0.00 0.00 73 1018.2
20260507104317 16 326 11.3 14.5 0.00 0.00 0.00 73 1018.3
20260507103813 16 317 9.7 12.9 0.00 0.00 0.00 73 1018.3
20260507103332 16 321 9.7 14.5 0.00 0.00 0.00 72 1018.3
20260507102827 16 326 11.3 16.1 0.00 0.00 0.00 72 1018.3
20260507102325 16 330 11.3 16.1 0.00 0.00 0.00 74 1018.2
20260507101823 15 331 9.7 12.9 0.00 0.00 0.00 74 1018.2
20260507101322 15 330 9.7 12.9 0.00 0.00 0.00 73 1018.1
20260507100817 15 329 9.7 14.5 0.00 0.00 0.00 74 1018.1
20260507100336 15 335 11.3 14.5 0.00 0.00 0.00 74 1018.0
20260507095826 15 322 11.3 12.9 0.00 0.00 0.00 75 1018.1
20260507095324 15 323 9.7 16.1 0.00 0.00 0.00 76 1018.0
20260507094841 15 326 11.3 16.1 0.00 0.00 0.00 75 1018.0
20260507094318 15 327 12.9 14.5 0.00 0.00 0.00 74 1017.9
20260507093848 15 328 12.9 14.5 0.00 0.00 0.00 74 1017.9
20260507093327 15 333 11.3 14.5 0.00 0.00 0.00 74 1017.9
20260507092822 15 332 8.0 11.3 0.00 0.00 0.00 75 1017.9
20260507092322 15 332 8.0 12.9 0.00 0.00 0.00 75 1017.9
20260507091820 15 336 9.7 14.5 0.00 0.00 0.00 74 1017.9
20260507091319 15 337 9.7 14.5 0.00 0.00 0.00 74 1018.0
20260507090816 15 349 9.7 14.5 0.00 0.00 0.00 75 1018.0
20260507090316 15 330 9.7 14.5 0.00 0.00 0.00 76 1017.9
20260507085841 15 313 9.7 14.5 0.00 0.00 0.00 75 1017.9
20260507085317 15 323 9.7 12.9 0.00 0.00 0.00 76 1017.8